Location: Unspecified
(50.7693°N, 0.0000°E)
Time: 04:46:58
(UTC+00:00)

A-11 Canister half - Pass Details

Date: 25 June 2019
Orbit: 1526 x 1683 km, 47.3° (Epoch: 21 August)

Event Time Altitude Azimuth Distance (km) Brightness Sun altitude
Rises 03:43:31 0° 223° (SW) 4,764 - -1.3°
Exits shadow 03:43:56 - 222° (SW) 4,637 10.8 -1.3°
Reaches altitude 10° 03:46:48 10° 217° (SW) 3,761 10.4 -0.9°
Maximum altitude 03:55:36 45° 149° (SSE) 2,002 9.6 0.1°
Drops below altitude 10° 04:04:15 10° 80° (E) 3,700 12.3 1.2°
Sets 04:07:26 0° 75° (ENE) 4,681 13.1 1.6°
